Flag for Pakistan Weather past 2 weeks in Narowal, Pakistan

Now
95 °F

Scattered clouds.


Feels Like: 113 °F
Forecast: 84 / 103 °F
Wind: 3 mph from Southwest

Location: Amritsar Airport

Current Time: Jul 5, 2015 at 9:42:10 AM

Latest Report: Jul 5, 2015 at 8:30 AM


Visibility: 3 mi

Pressure: 29.45 "Hg

Humidity: 60%

Dew point: 79 °F

Location of NarowalLocation

Historic Weather in Narowal — Graph

°F

Narowal temperature yesterday

Maximum temperature yesterday: 100 °F (at 1:00 PM)
Minimum temperature yesterday: 82 °F (at 5:00 AM)
Average temperature yesterday: 93 °F

Past Weeks' High & Low Weather Summary

 TemperatureHumidityPressure
High106 °F (Jun 28, 3:30 PM)100% (Jun 24, 3:30 AM)29.71 "Hg (Jun 24, 3:30 AM)
Low73 °F (Jun 21, 1:00 AM)27% (Jun 27, 2:00 PM)29.36 "Hg (Jun 22, 5:00 PM)
Average88 °F64%29.52 "Hg
* Reported Jun 20 8:00 AM — Jul 5 8:00 AM, Narowal, Weather by CustomWeather, © 2015

Note: Actual official high and low records may vary slightly from our data, if they occured in-between our weather recording intervals... More about our weather records

Advertising

Narowal weather history for previous 24 hours

 ConditionsComfort  
Time TempWeatherWind HumidityBarometerVisibility
8:00 AM
Sun, Jul 5
93 °FScattered clouds.2 mph63%29.45 "Hg2 mi
7:30 AM91 °FScattered clouds.1 mph71%29.45 "Hg2 mi
7:00 AM90 °FFog.No wind75%29.42 "Hg2 mi
6:30 AM90 °FFog.No wind75%29.42 "Hg1 mi
6:00 AM90 °FFog.No wind75%29.42 "Hg2 mi
5:30 AM88 °FFog.No wind79%29.42 "Hg2 mi
5:00 AM88 °FFog.3 mph79%29.42 "Hg2 mi
4:30 AM88 °FFog.No wind79%29.42 "Hg2 mi
4:00 AM88 °FFog.No wind79%29.42 "Hg2 mi
3:30 AM90 °FFog.No wind75%29.42 "Hg2 mi
3:00 AM88 °FPartly cloudy.No wind79%29.42 "Hg2 mi
2:30 AM90 °FPartly cloudy.No wind75%29.42 "Hg2 mi
2:00 AM90 °FPartly cloudy.No wind71%29.42 "Hg2 mi
1:30 AM90 °FPassing clouds.No wind75%29.45 "Hg2 mi
1:00 AM90 °FPassing clouds.No wind75%29.45 "Hg2 mi
12:30 AM91 °FPassing clouds.3 mph67%29.45 "Hg2 mi
12:00 AM91 °FPassing clouds.2 mph67%29.45 "Hg2 mi
11:00 PM
Sat, Jul 4
93 °FPassing clouds.5 mph63%29.47 "Hg2 mi
10:30 PM91 °FPassing clouds.No wind71%29.47 "Hg2 mi
10:00 PM91 °FHaze.No wind71%29.47 "Hg2 mi
9:00 PM93 °FHaze.No wind63%29.47 "Hg2 mi
8:30 PM93 °FHaze.No wind63%29.47 "Hg2 mi
8:00 PM93 °FPassing clouds.No wind63%29.45 "Hg2 mi
7:30 PM95 °FScattered clouds.2 mph60%29.45 "Hg2 mi
7:00 PM97 °FScattered clouds.6 mph56%29.45 "Hg3 mi
6:30 PM97 °FScattered clouds.7 mph56%29.45 "Hg3 mi
6:00 PM99 °FScattered clouds.7 mph47%29.45 "Hg3 mi
5:30 PM99 °FScattered clouds.7 mph47%29.45 "Hg3 mi
5:00 PM100 °FScattered clouds.7 mph42%29.45 "Hg3 mi
4:30 PM100 °FScattered clouds.7 mph42%29.45 "Hg3 mi
4:00 PM100 °FScattered clouds.3 mph45%29.45 "Hg3 mi
3:30 PM100 °FScattered clouds.7 mph45%29.47 "Hg3 mi
2:30 PM100 °FScattered clouds.6 mph45%29.47 "Hg3 mi
2:00 PM100 °FScattered clouds.7 mph47%29.47 "Hg3 mi
1:30 PM100 °FDuststorm.3 mph47%29.47 "Hg3 mi
1:00 PM100 °FDuststorm.6 mph45%29.50 "Hg3 mi
12:30 PM99 °FHaze.3 mph50%29.50 "Hg2 mi
12:00 PM99 °FHaze.6 mph50%29.50 "Hg2 mi
11:30 AM97 °FHaze.6 mph56%29.50 "Hg2 mi
11:00 AM97 °FHaze.6 mph56%29.50 "Hg2 mi
10:30 AM95 °FHaze.6 mph60%29.50 "Hg2 mi
10:00 AM93 °FHaze.6 mph63%29.50 "Hg2 mi
9:30 AM91 °FHaze.6 mph67%29.50 "Hg2 mi
9:00 AM91 °FHaze.2 mph56%29.50 "Hg3 mi
Weather by CustomWeather, © 2015

See weather overviewHow to use our weather pages